Santa Ynez, CA

11:35 PM PDT on April 29, 2017 (GMT -0700)
Santa Ynez

Weather History for KIZA - April, 2014

Change the Weather History Date:

Tuesday, April 29, 2014

  Actual Average (KSBA) Record (KSBA)
Temperature  
Mean Temperature 68 °F -  
Max Temperature 91 °F 68 °F 85 °F (2014)
Min Temperature 46 °F 48 °F 39 °F (1948)
Cooling Degree Days 4    
Growing Degree Days 18 (Base 50)    
Moisture  
Dew Point 34 °F    
Average Humidity 33    
Maximum Humidity 66    
Minimum Humidity 12    
Precipitation  
Precipitation 0.00 in - - ()
Sea Level Pressure  
Sea Level Pressure 30.07 in    
Wind  
Wind Speed 5 mph (West)    
Max Wind Speed 18 mph    
Max Gust Speed 25 mph    
Visibility 10 miles    
Events      
Averages and records for this station are not official NWS values.
T = Trace of Precipitation, MM = Missing Value Source: NWS Daily Summary

Daily Weather History Graph

Daily Weather History Graph

Search for Another Location

Airport or City:

Trip Planner

Search our weather history database for the weather conditions in past years. The results will help you decide how hot, cold, wet, or windy it might be!

Date:

Astronomy

Apr. 29, 2014 Rise Set
Actual Time 6:12 AM PDT 7:43 PM PDT
Civil Twilight 5:45 AM PDT 8:10 PM PDT
Nautical Twilight 5:13 AM PDT 8:42 PM PDT
Astronomical Twilight 4:39 AM PDT 9:16 PM PDT
Moon 6:33 AM PDT (4/29) 8:27 PM PDT (4/29)
Length of Visible Light 14h 25m
Length of Day
13h 31m
New Moon, 0% of the Moon is Illuminated
Apr 29
New Moon
May 6
First Quarter
May 14
Full
May 21
Last Quarter
May 28
New

Hourly Weather History & Observations

Time (PDT) Temp. Dew Point Humidity Pressure Visibility Wind Dir Wind Speed Gust Speed Precip Events Conditions
12:15 AM 62.6 °F 32.0 °F 32% 30.06 in 10.0 mi WSW 5.8 mph - N/A   Clear
12:35 AM 60.8 °F 32.0 °F 34% 30.06 in 10.0 mi SSW 3.5 mph - N/A   Clear
12:55 AM 59.0 °F 32.0 °F 36% 30.07 in 10.0 mi SSW 4.6 mph - N/A   Clear
1:15 AM 59.0 °F 32.0 °F 36% 30.08 in 10.0 mi Calm Calm - N/A   Clear
1:35 AM 59.0 °F 32.0 °F 36% 30.07 in 10.0 mi NNE 6.9 mph - N/A   Clear
1:55 AM 55.4 °F 32.0 °F 41% 30.07 in 10.0 mi WSW 3.5 mph - N/A   Clear
2:15 AM 53.6 °F 33.8 °F 47% 30.07 in 10.0 mi Calm Calm - N/A   Clear
2:35 AM 53.6 °F 33.8 °F 47% 30.07 in 10.0 mi Calm Calm - N/A   Clear
2:55 AM 53.6 °F 33.8 °F 47% 30.06 in 10.0 mi SSW 3.5 mph - N/A   Clear
3:15 AM 51.8 °F 33.8 °F 50% 30.07 in 10.0 mi Calm Calm - N/A   Clear
3:35 AM 53.6 °F 33.8 °F 47% 30.07 in 10.0 mi East 4.6 mph - N/A   Clear
3:55 AM 51.8 °F 33.8 °F 50% 30.07 in 10.0 mi Calm Calm - N/A   Clear
4:15 AM 50.0 °F 33.8 °F 54% 30.07 in 10.0 mi NE 3.5 mph - N/A   Clear
4:35 AM 50.0 °F 33.8 °F 54% 30.07 in 10.0 mi NNE 4.6 mph - N/A   Clear
4:55 AM 50.0 °F 33.8 °F 54% 30.07 in 10.0 mi NE 4.6 mph - N/A   Clear
5:15 AM 48.2 °F 33.8 °F 58% 30.07 in 10.0 mi Calm Calm - N/A   Clear
5:35 AM 48.2 °F 33.8 °F 58% 30.07 in 10.0 mi Calm Calm - N/A   Clear
5:55 AM 46.4 °F 35.6 °F 66% 30.07 in 10.0 mi Calm Calm - N/A   Clear
6:15 AM 46.4 °F 33.8 °F 62% 30.08 in 10.0 mi Calm Calm - N/A   Clear
6:35 AM 48.2 °F 33.8 °F 58% 30.08 in 10.0 mi Calm Calm - N/A   Clear
6:55 AM 50.0 °F 35.6 °F 58% 30.09 in 10.0 mi NE 3.5 mph - N/A   Clear
7:15 AM 51.8 °F 37.4 °F 58% 30.10 in 10.0 mi Calm Calm - N/A   Clear
7:35 AM 53.6 °F 35.6 °F 51% 30.10 in 10.0 mi Calm Calm - N/A   Clear
7:55 AM 55.4 °F 35.6 °F 47% 30.11 in 10.0 mi Calm Calm - N/A   Clear
8:15 AM 59.0 °F 37.4 °F 45% 30.11 in 10.0 mi Calm Calm - N/A   Clear
8:35 AM 60.8 °F 35.6 °F 39% 30.11 in 10.0 mi Calm Calm - N/A   Clear
8:55 AM 64.4 °F 35.6 °F 34% 30.12 in 10.0 mi Calm Calm - N/A   Clear
9:15 AM 64.4 °F 35.6 °F 34% 30.12 in 10.0 mi Calm Calm - N/A   Clear
9:35 AM 68.0 °F 35.6 °F 30% 30.12 in 10.0 mi SW 3.5 mph - N/A   Clear
9:55 AM 69.8 °F 35.6 °F 28% 30.11 in 10.0 mi SW 3.5 mph - N/A   Clear
10:15 AM 73.4 °F 35.6 °F 25% 30.11 in 10.0 mi Calm Calm - N/A   Clear
10:35 AM 75.2 °F 35.6 °F 24% 30.10 in 10.0 mi West 4.6 mph - N/A   Clear
11:15 AM 80.6 °F 30.2 °F 16% 30.10 in 10.0 mi SW 6.9 mph - N/A   Clear
11:35 AM 80.6 °F 32.0 °F 17% 30.09 in 10.0 mi West 4.6 mph - N/A   Clear
11:55 AM 84.2 °F 32.0 °F 15% 30.09 in 10.0 mi West 8.1 mph - N/A   Clear
12:15 PM 84.2 °F 33.8 °F 16% 30.07 in 10.0 mi West 5.8 mph - N/A   Clear
12:35 PM 86.0 °F 33.8 °F 15% 30.07 in 10.0 mi WSW 4.6 mph - N/A   Clear
12:55 PM 87.8 °F 33.8 °F 15% 30.06 in 10.0 mi West 9.2 mph - N/A   Clear
1:15 PM 89.6 °F 32.0 °F 13% 30.05 in 10.0 mi WSW 8.1 mph 16.1 mph N/A   Clear
1:35 PM 91.4 °F 32.0 °F 12% 30.05 in 10.0 mi SW 6.9 mph - N/A   Clear
1:55 PM 91.4 °F 32.0 °F 12% 30.05 in 10.0 mi West 18.4 mph - N/A   Clear
2:15 PM 91.4 °F 32.0 °F 12% 30.04 in 10.0 mi WSW 16.1 mph 25.3 mph N/A   Clear
2:35 PM 91.4 °F 32.0 °F 12% 30.03 in 10.0 mi WSW 16.1 mph - N/A   Clear
2:55 PM 89.6 °F 32.0 °F 13% 30.03 in 10.0 mi WSW 18.4 mph 23.0 mph N/A   Clear
3:35 PM 89.6 °F 30.2 °F 12% 30.02 in 10.0 mi WSW 18.4 mph - N/A   Clear
3:55 PM 89.6 °F 30.2 °F 12% 30.01 in 10.0 mi WSW 18.4 mph - N/A   Clear
4:15 PM 87.8 °F 30.2 °F 13% 30.01 in 10.0 mi WSW 17.3 mph 21.9 mph N/A   Clear
4:35 PM 87.8 °F 30.2 °F 13% 30.01 in 10.0 mi West 17.3 mph - N/A   Clear
4:55 PM 87.8 °F 30.2 °F 13% 30.01 in 10.0 mi West 16.1 mph 24.2 mph N/A   Clear
5:15 PM 86.0 °F 30.2 °F 13% 30.02 in 10.0 mi West 16.1 mph 23.0 mph N/A   Clear
5:35 PM 86.0 °F 30.2 °F 13% 30.02 in 10.0 mi West 12.7 mph - N/A   Clear
5:55 PM 82.4 °F 32.0 °F 16% 30.02 in 10.0 mi West 12.7 mph 18.4 mph N/A   Clear
6:15 PM 80.6 °F 32.0 °F 17% 30.03 in 10.0 mi West 13.8 mph - N/A   Clear
6:35 PM 78.8 °F 33.8 °F 20% 30.03 in 10.0 mi West 11.5 mph - N/A   Clear
6:55 PM 77.0 °F 33.8 °F 21% 30.04 in 10.0 mi West 10.4 mph - N/A   Clear
7:15 PM 73.4 °F 33.8 °F 23% 30.04 in 10.0 mi WNW 6.9 mph - N/A   Clear
7:35 PM 71.6 °F 35.6 °F 27% 30.05 in 10.0 mi WNW 5.8 mph - N/A   Clear
7:55 PM 69.8 °F 35.6 °F 28% 30.05 in 10.0 mi NW 6.9 mph - N/A   Clear
8:15 PM 68.0 °F 35.6 °F 30% 30.06 in 10.0 mi WNW 5.8 mph - N/A   Clear
8:35 PM 64.4 °F 35.6 °F 34% 30.06 in 10.0 mi Calm Calm - N/A   Clear
8:55 PM 64.4 °F 35.6 °F 34% 30.07 in 10.0 mi SW 3.5 mph - N/A   Clear
9:15 PM 64.4 °F 35.6 °F 34% 30.06 in 10.0 mi Calm Calm - N/A   Clear
9:35 PM 64.4 °F 35.6 °F 34% 30.07 in 10.0 mi NE 3.5 mph - N/A   Clear
9:55 PM 62.6 °F 35.6 °F 37% 30.07 in 10.0 mi ENE 4.6 mph - N/A   Clear
10:15 PM 62.6 °F 37.4 °F 39% 30.07 in 10.0 mi ENE 5.8 mph - N/A   Clear
10:35 PM 60.8 °F 35.6 °F 39% 30.07 in 10.0 mi ENE 4.6 mph - N/A   Clear
10:55 PM 60.8 °F 35.6 °F 39% 30.07 in 10.0 mi ENE 4.6 mph - N/A   Clear
11:15 PM 59.0 °F 35.6 °F 42% 30.07 in 10.0 mi East 5.8 mph - N/A   Clear
11:35 PM 60.8 °F 35.6 °F 39% 30.07 in 10.0 mi East 5.8 mph - N/A   Clear
11:55 PM 57.2 °F 35.6 °F 44% 30.07 in 10.0 mi NE 3.5 mph - N/A   Clear